Simultaneous Nadir Overpasses (SNOs) Predictions

Prediction of SNOs between LANDSAT-8 and METOP-B Satellite Orbit:

Table of predicted SNOs for the next 14.0 days since TLE Epoch: 5/6/2016
Index Date (LANDSAT-8) Time (LANDSAT-8) Lat,Lon (LANDSAT-8) SZA (LANDSAT-8 ) Date (METOP-B) Time (METOP-B) Lat,Lon (METOP-B) SZA (METOP-B ) Distance(km) Time Diff (sec)
1 05/07/2016 10:36:26 -81.08,-119.83 113.75 05/07/2016 10:36:16 -81.08,-119.83 113.75 0.55 10
2 05/07/2016 11:25:51 81.11, 48.27 66.31 05/07/2016 11:26:54 81.11, 48.37 66.36 1.91 63
3 05/10/2016 05:21:13 81.07, 138.80 65.49 05/10/2016 05:20:00 81.06, 138.73 65.45 1.26 73
4 05/10/2016 06:10:39 -81.09, -53.26 114.47 05/10/2016 06:10:39 -81.09, -53.07 114.45 3.28 0
5 05/10/2016 06:59:59 81.23, 116.66 65.86 05/10/2016 07:01:13 81.17, 116.65 65.85 6.51 74
6
